owner,sensor,date,latitude,longitude,vertical_datum,sea_water_practical_salinity,qcFlag 
DISL,ioos:station:DISL:MHPA:1,2014-08-01T00:00:00Z,30.6671,-87.9365,1.033,0.31,1111122 
DISL,ioos:station:DISL:MHPA:1,2014-08-01T00:30:00Z,30.6671,-87.9365,1.013,0.32,1111122 
DISL,ioos:station:DISL:MHPA:1,2014-08-01T01:00:00Z,30.6671,-87.9365,0.989,0.32,1111122 
DISL,ioos:station:DISL:MHPA:1,2014-08-01T01:30:00Z,30.6671,-87.9365,0.959,0.32,1111122 
DISL,ioos:station:DISL:MHPA:1,2014-08-01T02:00:00Z,30.6671,-87.9365,0.933,0.32,1111122 
DISL,ioos:station:DISL:MHPA:1,2014-08-01T02:30:00Z,30.6671,-87.9365,0.907,0.32,1111122 
DISL,ioos:station:DISL:MHPA:1,2014-08-01T03:00:00Z,30.6671,-87.9365,0.882,0.33,1111122 
DISL,ioos:station:DISL:MHPA:1,2014-08-01T03:30:00Z,30.6671,-87.9365,0.872,0.32,1111122 
DISL,ioos:station:DISL:MHPA:1,2014-08-01T04:00:00Z,30.6671,-87.9365,0.875,0.32,1111122 
DISL,ioos:station:DISL:MHPA:1,2014-08-01T04:30:00Z,30.6671,-87.9365,0.872,0.33,1111122 
DISL,ioos:station:DISL:MHPA:1,2014-08-01T05:00:00Z,30.6671,-87.9365,0.877,0.33,1111122 
DISL,ioos:station:DISL:MHPA:1,2014-08-01T05:30:00Z,30.6671,-87.9365,0.886,0.32,1111122 
DISL,ioos:station:DISL:MHPA:1,2014-08-01T06:00:00Z,30.6671,-87.9365,0.899,0.31,1111122 
DISL,ioos:station:DISL:MHPA:1,2014-08-01T06:30:00Z,30.6671,-87.9365,0.922,0.32,1111122 
DISL,ioos:station:DISL:MHPA:1,2014-08-01T07:00:00Z,30.6671,-87.9365,0.943,0.32,1111122 
DISL,ioos:station:DISL:MHPA:1,2014-08-01T07:30:00Z,30.6671,-87.9365,0.952,0.32,1111122 
DISL,ioos:station:DISL:MHPA:1,2014-08-01T08:00:00Z,30.6671,-87.9365,0.972,0.33,1111122 
DISL,ioos:station:DISL:MHPA:1,2014-08-01T08:30:00Z,30.6671,-87.9365,1.001,0.32,1111122 
DISL,ioos:station:DISL:MHPA:1,2014-08-01T09:00:00Z,30.6671,-87.9365,1.026,0.32,1111122 
DISL,ioos:station:DISL:MHPA:1,2014-08-01T09:30:00Z,30.6671,-87.9365,1.038,0.32,1111122 
DISL,ioos:station:DISL:MHPA:1,2014-08-01T10:00:00Z,30.6671,-87.9365,1.047,0.31,1111122 
DISL,ioos:station:DISL:MHPA:1,2014-08-01T10:30:00Z,30.6671,-87.9365,1.053,0.31,1111122 
DISL,ioos:station:DISL:MHPA:1,2014-08-01T11:00:00Z,30.6671,-87.9365,1.058,0.31,1111122 
DISL,ioos:station:DISL:MHPA:1,2014-08-01T11:30:00Z,30.6671,-87.9365,1.06,0.31,1111122 
DISL,ioos:station:DISL:MHPA:1,2014-08-01T12:00:00Z,30.6671,-87.9365,1.058,0.31,1111122 
DISL,ioos:station:DISL:MHPA:1,2014-08-01T12:30:00Z,30.6671,-87.9365,1.054,0.32,1111122 
DISL,ioos:station:DISL:MHPA:1,2014-08-01T13:00:00Z,30.6671,-87.9365,1.038,0.32,1111122 
DISL,ioos:station:DISL:MHPA:1,2014-08-01T13:30:00Z,30.6671,-87.9365,1.021,0.32,1111122 
DISL,ioos:station:DISL:MHPA:1,2014-08-01T14:00:00Z,30.6671,-87.9365,1.011,0.32,1111122 
DISL,ioos:station:DISL:MHPA:1,2014-08-01T14:30:00Z,30.6671,-87.9365,1.009,0.32,1111122 
DISL,ioos:station:DISL:MHPA:1,2014-08-01T15:00:00Z,30.6671,-87.9365,0.995,0.36,1111122 
DISL,ioos:station:DISL:MHPA:1,2014-08-01T15:30:00Z,30.6671,-87.9365,1.0,0.35,1111122 
DISL,ioos:station:DISL:MHPA:1,2014-08-01T16:00:00Z,30.6671,-87.9365,1.013,0.36,1111122 
DISL,ioos:station:DISL:MHPA:1,2014-08-01T16:30:00Z,30.6671,-87.9365,1.023,0.45,1111122 
DISL,ioos:station:DISL:MHPA:1,2014-08-01T17:00:00Z,30.6671,-87.9365,1.023,0.39,1111122 
DISL,ioos:station:DISL:MHPA:1,2014-08-01T17:30:00Z,30.6671,-87.9365,1.032,0.4,1111122 
DISL,ioos:station:DISL:MHPA:1,2014-08-01T18:00:00Z,30.6671,-87.9365,1.046,0.41,1111122 
DISL,ioos:station:DISL:MHPA:1,2014-08-01T18:30:00Z,30.6671,-87.9365,1.041,0.4,1111122 
DISL,ioos:station:DISL:MHPA:1,2014-08-01T19:00:00Z,30.6671,-87.9365,1.043,0.4,1111122 
DISL,ioos:station:DISL:MHPA:1,2014-08-01T19:30:00Z,30.6671,-87.9365,1.045,0.38,1111122 
DISL,ioos:station:DISL:MHPA:1,2014-08-01T20:00:00Z,30.6671,-87.9365,1.047,0.36,1111122 
DISL,ioos:station:DISL:MHPA:1,2014-08-01T20:30:00Z,30.6671,-87.9365,1.049,0.49,1111122 
DISL,ioos:station:DISL:MHPA:1,2014-08-01T21:00:00Z,30.6671,-87.9365,1.05,0.47,1111122 
DISL,ioos:station:DISL:MHPA:1,2014-08-01T21:30:00Z,30.6671,-87.9365,1.055,0.43,1111122 
DISL,ioos:station:DISL:MHPA:1,2014-08-01T22:00:00Z,30.6671,-87.9365,1.052,0.39,1111122 
DISL,ioos:station:DISL:MHPA:1,2014-08-01T22:30:00Z,30.6671,-87.9365,1.044,0.4,1111122 
DISL,ioos:station:DISL:MHPA:1,2014-08-01T23:00:00Z,30.6671,-87.9365,1.047,0.39,1111122 
DISL,ioos:station:DISL:MHPA:1,2014-08-01T23:30:00Z,30.6671,-87.9365,1.023,0.4,1111122 
DISL,ioos:station:DISL:MHPA:1,2014-08-02T00:00:00Z,30.6671,-87.9365,1.005,0.43,1111122 
DISL,ioos:station:DISL:MHPA:1,2014-08-02T00:30:00Z,30.6671,-87.9365,0.995,0.47,1111122 
DISL,ioos:station:DISL:MHPA:1,2014-08-02T01:00:00Z,30.6671,-87.9365,0.973,0.51,1111122 
DISL,ioos:station:DISL:MHPA:1,2014-08-02T01:30:00Z,30.6671,-87.9365,0.956,0.55,1111122 
DISL,ioos:station:DISL:MHPA:1,2014-08-02T02:00:00Z,30.6671,-87.9365,0.945,0.56,1111122 
DISL,ioos:station:DISL:MHPA:1,2014-08-02T02:30:00Z,30.6671,-87.9365,0.925,0.55,1111122 
DISL,ioos:station:DISL:MHPA:1,2014-08-02T03:00:00Z,30.6671,-87.9365,0.904,0.53,1111122 
DISL,ioos:station:DISL:MHPA:1,2014-08-02T03:30:00Z,30.6671,-87.9365,0.896,0.52,1111122 
DISL,ioos:station:DISL:MHPA:1,2014-08-02T04:00:00Z,30.6671,-87.9365,0.896,0.49,1111122 
DISL,ioos:station:DISL:MHPA:1,2014-08-02T04:30:00Z,30.6671,-87.9365,0.899,0.51,1111122 
DISL,ioos:station:DISL:MHPA:1,2014-08-02T05:00:00Z,30.6671,-87.9365,0.914,0.5,1111122 
DISL,ioos:station:DISL:MHPA:1,2014-08-02T05:30:00Z,30.6671,-87.9365,0.946,0.51,1111122 
DISL,ioos:station:DISL:MHPA:1,2014-08-02T06:00:00Z,30.6671,-87.9365,0.972,0.5,1111122 
DISL,ioos:station:DISL:MHPA:1,2014-08-02T06:30:00Z,30.6671,-87.9365,0.996,0.5,1111122 
DISL,ioos:station:DISL:MHPA:1,2014-08-02T07:00:00Z,30.6671,-87.9365,1.032,0.5,1111122 
DISL,ioos:station:DISL:MHPA:1,2014-08-02T07:30:00Z,30.6671,-87.9365,1.059,0.49,1111122 
DISL,ioos:station:DISL:MHPA:1,2014-08-02T08:00:00Z,30.6671,-87.9365,1.081,0.49,1111122 
DISL,ioos:station:DISL:MHPA:1,2014-08-02T08:30:00Z,30.6671,-87.9365,1.098,0.5,1111122 
DISL,ioos:station:DISL:MHPA:1,2014-08-02T09:00:00Z,30.6671,-87.9365,1.118,0.52,1111122 
DISL,ioos:station:DISL:MHPA:1,2014-08-02T09:30:00Z,30.6671,-87.9365,1.13,0.54,1111122 
DISL,ioos:station:DISL:MHPA:1,2014-08-02T10:00:00Z,30.6671,-87.9365,1.137,0.54,1111122 
DISL,ioos:station:DISL:MHPA:1,2014-08-02T10:30:00Z,30.6671,-87.9365,1.147,0.57,1111122 
DISL,ioos:station:DISL:MHPA:1,2014-08-02T11:00:00Z,30.6671,-87.9365,1.141,0.59,1111122 
DISL,ioos:station:DISL:MHPA:1,2014-08-02T11:30:00Z,30.6671,-87.9365,1.147,0.59,1111122 
DISL,ioos:station:DISL:MHPA:1,2014-08-02T12:00:00Z,30.6671,-87.9365,1.145,0.59,1111122 
DISL,ioos:station:DISL:MHPA:1,2014-08-02T12:30:00Z,30.6671,-87.9365,1.122,0.57,1111122 
DISL,ioos:station:DISL:MHPA:1,2014-08-02T13:00:00Z,30.6671,-87.9365,1.108,0.57,1111122 
DISL,ioos:station:DISL:MHPA:1,2014-08-02T13:30:00Z,30.6671,-87.9365,1.086,0.59,1111122 
DISL,ioos:station:DISL:MHPA:1,2014-08-02T14:00:00Z,30.6671,-87.9365,1.069,0.62,1111122 
DISL,ioos:station:DISL:MHPA:1,2014-08-02T14:30:00Z,30.6671,-87.9365,1.058,0.63,1111122 
DISL,ioos:station:DISL:MHPA:1,2014-08-02T15:00:00Z,30.6671,-87.9365,1.032,0.62,1111122 
DISL,ioos:station:DISL:MHPA:1,2014-08-02T15:30:00Z,30.6671,-87.9365,1.011,0.62,1111122 
DISL,ioos:station:DISL:MHPA:1,2014-08-02T16:00:00Z,30.6671,-87.9365,0.995,0.63,1111122 
DISL,ioos:station:DISL:MHPA:1,2014-08-02T16:30:00Z,30.6671,-87.9365,0.988,0.61,1111122 
DISL,ioos:station:DISL:MHPA:1,2014-08-02T17:00:00Z,30.6671,-87.9365,0.979,0.62,1111122 
DISL,ioos:station:DISL:MHPA:1,2014-08-02T17:30:00Z,30.6671,-87.9365,0.972,0.56,1111122 
DISL,ioos:station:DISL:MHPA:1,2014-08-02T18:00:00Z,30.6671,-87.9365,0.974,0.58,1111122 
DISL,ioos:station:DISL:MHPA:1,2014-08-02T18:30:00Z,30.6671,-87.9365,0.978,0.5,1111122 
DISL,ioos:station:DISL:MHPA:1,2014-08-02T19:00:00Z,30.6671,-87.9365,0.983,0.5,1111122 
DISL,ioos:station:DISL:MHPA:1,2014-08-02T19:30:00Z,30.6671,-87.9365,0.98,0.52,1111122 
DISL,ioos:station:DISL:MHPA:1,2014-08-02T20:00:00Z,30.6671,-87.9365,0.986,0.51,1111122 
DISL,ioos:station:DISL:MHPA:1,2014-08-02T20:30:00Z,30.6671,-87.9365,1.005,0.51,1111122 
DISL,ioos:station:DISL:MHPA:1,2014-08-02T21:00:00Z,30.6671,-87.9365,1.007,0.52,1111122 
DISL,ioos:station:DISL:MHPA:1,2014-08-02T21:30:00Z,30.6671,-87.9365,1.006,0.51,1111122 
DISL,ioos:station:DISL:MHPA:1,2014-08-02T22:00:00Z,30.6671,-87.9365,1.03,0.5,1111122 
DISL,ioos:station:DISL:MHPA:1,2014-08-02T22:30:00Z,30.6671,-87.9365,1.047,0.54,1111122 
DISL,ioos:station:DISL:MHPA:1,2014-08-02T23:00:00Z,30.6671,-87.9365,1.049,0.57,1111122 
DISL,ioos:station:DISL:MHPA:1,2014-08-02T23:30:00Z,30.6671,-87.9365,1.041,0.59,1111122 
DISL,ioos:station:DISL:MHPA:1,2014-08-03T00:00:00Z,30.6671,-87.9365,1.047,0.55,1111122 
DISL,ioos:station:DISL:MHPA:1,2014-08-03T00:30:00Z,30.6671,-87.9365,1.06,0.61,1111122 
DISL,ioos:station:DISL:MHPA:1,2014-08-03T01:00:00Z,30.6671,-87.9365,1.073,0.63,1111122 
DISL,ioos:station:DISL:MHPA:1,2014-08-03T01:30:00Z,30.6671,-87.9365,1.064,0.64,1111122 
DISL,ioos:station:DISL:MHPA:1,2014-08-03T02:00:00Z,30.6671,-87.9365,1.051,0.58,1111122 
DISL,ioos:station:DISL:MHPA:1,2014-08-03T02:30:00Z,30.6671,-87.9365,1.035,0.58,1111122 
DISL,ioos:station:DISL:MHPA:1,2014-08-03T03:00:00Z,30.6671,-87.9365,1.034,0.6,1111122 
DISL,ioos:station:DISL:MHPA:1,2014-08-03T03:30:00Z,30.6671,-87.9365,1.023,0.65,1111122 
DISL,ioos:station:DISL:MHPA:1,2014-08-03T04:00:00Z,30.6671,-87.9365,1.031,0.62,1111122 
DISL,ioos:station:DISL:MHPA:1,2014-08-03T04:30:00Z,30.6671,-87.9365,1.023,0.51,1111122 
DISL,ioos:station:DISL:MHPA:1,2014-08-03T05:00:00Z,30.6671,-87.9365,1.022,0.55,1111122 
DISL,ioos:station:DISL:MHPA:1,2014-08-03T05:30:00Z,30.6671,-87.9365,1.023,0.6,1111122 
DISL,ioos:station:DISL:MHPA:1,2014-08-03T06:00:00Z,30.6671,-87.9365,1.039,0.53,1111122 
DISL,ioos:station:DISL:MHPA:1,2014-08-03T06:30:00Z,30.6671,-87.9365,1.057,0.59,1111122 
DISL,ioos:station:DISL:MHPA:1,2014-08-03T07:00:00Z,30.6671,-87.9365,1.072,0.6,1111122 
DISL,ioos:station:DISL:MHPA:1,2014-08-03T07:30:00Z,30.6671,-87.9365,1.076,0.6,1111122 
DISL,ioos:station:DISL:MHPA:1,2014-08-03T08:00:00Z,30.6671,-87.9365,1.092,0.61,1111122 
DISL,ioos:station:DISL:MHPA:1,2014-08-03T08:30:00Z,30.6671,-87.9365,1.12,0.61,1111122 
DISL,ioos:station:DISL:MHPA:1,2014-08-03T09:00:00Z,30.6671,-87.9365,1.14,0.61,1111122 
DISL,ioos:station:DISL:MHPA:1,2014-08-03T09:30:00Z,30.6671,-87.9365,1.16,0.62,1111122 
DISL,ioos:station:DISL:MHPA:1,2014-08-03T10:00:00Z,30.6671,-87.9365,1.18,0.69,1111122 
DISL,ioos:station:DISL:MHPA:1,2014-08-03T10:30:00Z,30.6671,-87.9365,1.183,0.69,1111122 
DISL,ioos:station:DISL:MHPA:1,2014-08-03T11:00:00Z,30.6671,-87.9365,1.187,0.7,1111122 
DISL,ioos:station:DISL:MHPA:1,2014-08-03T11:30:00Z,30.6671,-87.9365,1.169,0.7,1111122 
DISL,ioos:station:DISL:MHPA:1,2014-08-03T12:00:00Z,30.6671,-87.9365,1.151,0.67,1111122 
DISL,ioos:station:DISL:MHPA:1,2014-08-03T12:30:00Z,30.6671,-87.9365,1.142,0.66,1111122 
DISL,ioos:station:DISL:MHPA:1,2014-08-03T13:00:00Z,30.6671,-87.9365,1.135,0.68,1111122 
DISL,ioos:station:DISL:MHPA:1,2014-08-03T13:30:00Z,30.6671,-87.9365,1.12,0.68,1111122 
DISL,ioos:station:DISL:MHPA:1,2014-08-03T14:00:00Z,30.6671,-87.9365,1.123,0.68,1111122 
DISL,ioos:station:DISL:MHPA:1,2014-08-03T14:30:00Z,30.6671,-87.9365,1.111,0.67,1111122 
DISL,ioos:station:DISL:MHPA:1,2014-08-03T15:00:00Z,30.6671,-87.9365,1.088,0.71,1111122 
DISL,ioos:station:DISL:MHPA:1,2014-08-03T15:30:00Z,30.6671,-87.9365,1.073,0.8,1111122 
DISL,ioos:station:DISL:MHPA:1,2014-08-03T16:00:00Z,30.6671,-87.9365,1.052,0.82,1111122 
DISL,ioos:station:DISL:MHPA:1,2014-08-03T16:30:00Z,30.6671,-87.9365,1.022,0.79,1111122 
DISL,ioos:station:DISL:MHPA:1,2014-08-03T17:00:00Z,30.6671,-87.9365,0.996,0.79,1111122 
DISL,ioos:station:DISL:MHPA:1,2014-08-03T17:30:00Z,30.6671,-87.9365,0.972,0.8,1111122 
DISL,ioos:station:DISL:MHPA:1,2014-08-03T18:00:00Z,30.6671,-87.9365,0.959,0.77,1111122 
DISL,ioos:station:DISL:MHPA:1,2014-08-03T18:30:00Z,30.6671,-87.9365,0.94,0.81,1111122 
DISL,ioos:station:DISL:MHPA:1,2014-08-03T19:00:00Z,30.6671,-87.9365,0.927,0.84,1111122 
DISL,ioos:station:DISL:MHPA:1,2014-08-03T19:30:00Z,30.6671,-87.9365,0.931,0.85,1111122 
DISL,ioos:station:DISL:MHPA:1,2014-08-03T20:00:00Z,30.6671,-87.9365,0.929,0.84,1111122 
DISL,ioos:station:DISL:MHPA:1,2014-08-03T20:30:00Z,30.6671,-87.9365,0.931,0.85,1111122 
DISL,ioos:station:DISL:MHPA:1,2014-08-03T21:00:00Z,30.6671,-87.9365,0.943,0.83,1111122 
DISL,ioos:station:DISL:MHPA:1,2014-08-03T21:30:00Z,30.6671,-87.9365,0.971,0.81,1111122 
DISL,ioos:station:DISL:MHPA:1,2014-08-03T22:00:00Z,30.6671,-87.9365,0.981,0.82,1111122 
DISL,ioos:station:DISL:MHPA:1,2014-08-03T22:30:00Z,30.6671,-87.9365,0.982,0.8,1111122 
DISL,ioos:station:DISL:MHPA:1,2014-08-03T23:00:00Z,30.6671,-87.9365,0.979,0.77,1111122 
DISL,ioos:station:DISL:MHPA:1,2014-08-03T23:30:00Z,30.6671,-87.9365,0.978,0.73,1111122 
DISL,ioos:station:DISL:MHPA:1,2014-08-04T00:00:00Z,30.6671,-87.9365,0.979,0.73,1111122 
DISL,ioos:station:DISL:MHPA:1,2014-08-04T00:30:00Z,30.6671,-87.9365,0.988,0.73,1111122 
DISL,ioos:station:DISL:MHPA:1,2014-08-04T01:00:00Z,30.6671,-87.9365,1.004,0.79,1111122 
DISL,ioos:station:DISL:MHPA:1,2014-08-04T01:30:00Z,30.6671,-87.9365,1.003,0.83,1111122 
DISL,ioos:station:DISL:MHPA:1,2014-08-04T02:00:00Z,30.6671,-87.9365,0.999,0.88,1111122 
DISL,ioos:station:DISL:MHPA:1,2014-08-04T02:30:00Z,30.6671,-87.9365,1.017,0.86,1111122 
DISL,ioos:station:DISL:MHPA:1,2014-08-04T03:00:00Z,30.6671,-87.9365,1.031,0.77,1111122 
DISL,ioos:station:DISL:MHPA:1,2014-08-04T03:30:00Z,30.6671,-87.9365,1.038,0.86,1111122 
DISL,ioos:station:DISL:MHPA:1,2014-08-04T04:00:00Z,30.6671,-87.9365,1.043,0.85,1111122 
DISL,ioos:station:DISL:MHPA:1,2014-08-04T04:30:00Z,30.6671,-87.9365,1.039,0.9,1111122 
DISL,ioos:station:DISL:MHPA:1,2014-08-04T05:00:00Z,30.6671,-87.9365,1.052,0.95,1111122 
DISL,ioos:station:DISL:MHPA:1,2014-08-04T05:30:00Z,30.6671,-87.9365,1.057,0.86,1111122 
DISL,ioos:station:DISL:MHPA:1,2014-08-04T06:00:00Z,30.6671,-87.9365,1.061,0.89,1111122 
DISL,ioos:station:DISL:MHPA:1,2014-08-04T06:30:00Z,30.6671,-87.9365,1.092,0.95,1111122 
DISL,ioos:station:DISL:MHPA:1,2014-08-04T07:00:00Z,30.6671,-87.9365,1.114,0.92,1111122 
DISL,ioos:station:DISL:MHPA:1,2014-08-04T07:30:00Z,30.6671,-87.9365,1.134,0.95,1111122 
DISL,ioos:station:DISL:MHPA:1,2014-08-04T08:00:00Z,30.6671,-87.9365,1.149,0.97,1111122 
DISL,ioos:station:DISL:MHPA:1,2014-08-04T08:30:00Z,30.6671,-87.9365,1.175,0.96,1111122 
DISL,ioos:station:DISL:MHPA:1,2014-08-04T09:00:00Z,30.6671,-87.9365,1.206,1.01,1111122 
DISL,ioos:station:DISL:MHPA:1,2014-08-04T09:30:00Z,30.6671,-87.9365,1.223,1.13,1111122 
DISL,ioos:station:DISL:MHPA:1,2014-08-04T10:00:00Z,30.6671,-87.9365,1.224,0.95,1111122 
DISL,ioos:station:DISL:MHPA:1,2014-08-04T10:30:00Z,30.6671,-87.9365,1.207,0.95,1111122 
DISL,ioos:station:DISL:MHPA:1,2014-08-04T11:00:00Z,30.6671,-87.9365,1.224,1.01,1111122 
DISL,ioos:station:DISL:MHPA:1,2014-08-04T11:30:00Z,30.6671,-87.9365,1.248,0.96,1111122 
DISL,ioos:station:DISL:MHPA:1,2014-08-04T12:00:00Z,30.6671,-87.9365,1.25,1.06,1111122 
DISL,ioos:station:DISL:MHPA:1,2014-08-04T12:30:00Z,30.6671,-87.9365,1.23,1.07,1111122 
DISL,ioos:station:DISL:MHPA:1,2014-08-04T13:00:00Z,30.6671,-87.9365,1.213,1.09,1111122 
DISL,ioos:station:DISL:MHPA:1,2014-08-04T13:30:00Z,30.6671,-87.9365,1.187,1.09,1111122 
DISL,ioos:station:DISL:MHPA:1,2014-08-04T14:00:00Z,30.6671,-87.9365,1.18,1.12,1111122 
DISL,ioos:station:DISL:MHPA:1,2014-08-04T14:30:00Z,30.6671,-87.9365,1.177,1.05,1111122 
DISL,ioos:station:DISL:MHPA:1,2014-08-04T15:00:00Z,30.6671,-87.9365,1.166,1.06,1111122 
DISL,ioos:station:DISL:MHPA:1,2014-08-04T15:30:00Z,30.6671,-87.9365,1.137,1.34,1111122 
DISL,ioos:station:DISL:MHPA:1,2014-08-04T16:00:00Z,30.6671,-87.9365,1.105,1.22,1111122 
DISL,ioos:station:DISL:MHPA:1,2014-08-04T16:30:00Z,30.6671,-87.9365,1.08,1.23,1111122 
DISL,ioos:station:DISL:MHPA:1,2014-08-04T17:00:00Z,30.6671,-87.9365,1.055,1.23,1111122 
DISL,ioos:station:DISL:MHPA:1,2014-08-04T17:30:00Z,30.6671,-87.9365,1.036,1.11,1111122 
DISL,ioos:station:DISL:MHPA:1,2014-08-04T18:00:00Z,30.6671,-87.9365,1.02,1.13,1111122 
DISL,ioos:station:DISL:MHPA:1,2014-08-04T18:30:00Z,30.6671,-87.9365,0.995,1.07,1111122 
DISL,ioos:station:DISL:MHPA:1,2014-08-04T19:00:00Z,30.6671,-87.9365,0.961,1.25,1111122 
DISL,ioos:station:DISL:MHPA:1,2014-08-04T19:30:00Z,30.6671,-87.9365,0.935,1.45,1111122 
DISL,ioos:station:DISL:MHPA:1,2014-08-04T20:00:00Z,30.6671,-87.9365,0.916,1.4,1111122 
DISL,ioos:station:DISL:MHPA:1,2014-08-04T20:30:00Z,30.6671,-87.9365,0.898,1.32,1111122 
DISL,ioos:station:DISL:MHPA:1,2014-08-04T21:00:00Z,30.6671,-87.9365,0.89,1.41,1111122 
DISL,ioos:station:DISL:MHPA:1,2014-08-04T21:30:00Z,30.6671,-87.9365,0.888,1.28,1111122 
DISL,ioos:station:DISL:MHPA:1,2014-08-04T22:00:00Z,30.6671,-87.9365,0.872,1.19,1111122 
DISL,ioos:station:DISL:MHPA:1,2014-08-04T22:30:00Z,30.6671,-87.9365,0.864,1.2,1111122 
DISL,ioos:station:DISL:MHPA:1,2014-08-04T23:00:00Z,30.6671,-87.9365,0.863,1.4,1111122 
DISL,ioos:station:DISL:MHPA:1,2014-08-04T23:30:00Z,30.6671,-87.9365,0.859,1.65,1111122 
DISL,ioos:station:DISL:MHPA:1,2014-08-05T00:00:00Z,30.6671,-87.9365,0.832,1.15,1111122 
DISL,ioos:station:DISL:MHPA:1,2014-08-05T00:30:00Z,30.6671,-87.9365,0.87,1.16,1111122 
DISL,ioos:station:DISL:MHPA:1,2014-08-05T01:00:00Z,30.6671,-87.9365,0.903,1.15,1111122 
DISL,ioos:station:DISL:MHPA:1,2014-08-05T01:30:00Z,30.6671,-87.9365,0.915,1.15,1111122 
DISL,ioos:station:DISL:MHPA:1,2014-08-05T02:00:00Z,30.6671,-87.9365,0.949,1.2,1111122 
DISL,ioos:station:DISL:MHPA:1,2014-08-05T02:30:00Z,30.6671,-87.9365,0.991,1.3,1111122 
DISL,ioos:station:DISL:MHPA:1,2014-08-05T03:00:00Z,30.6671,-87.9365,1.013,1.33,1111122 
DISL,ioos:station:DISL:MHPA:1,2014-08-05T03:30:00Z,30.6671,-87.9365,1.03,1.33,1111122 
DISL,ioos:station:DISL:MHPA:1,2014-08-05T04:00:00Z,30.6671,-87.9365,1.053,1.22,1111122 
DISL,ioos:station:DISL:MHPA:1,2014-08-05T04:30:00Z,30.6671,-87.9365,1.069,1.34,1111122 
DISL,ioos:station:DISL:MHPA:1,2014-08-05T05:00:00Z,30.6671,-87.9365,1.1,1.38,1111122 
DISL,ioos:station:DISL:MHPA:1,2014-08-05T05:30:00Z,30.6671,-87.9365,1.14,1.44,1111122 
DISL,ioos:station:DISL:MHPA:1,2014-08-05T06:00:00Z,30.6671,-87.9365,1.136,1.36,1111122 
DISL,ioos:station:DISL:MHPA:1,2014-08-05T06:30:00Z,30.6671,-87.9365,1.126,1.27,1111122 
DISL,ioos:station:DISL:MHPA:1,2014-08-05T07:00:00Z,30.6671,-87.9365,1.167,1.4,1111122 
DISL,ioos:station:DISL:MHPA:1,2014-08-05T07:30:00Z,30.6671,-87.9365,1.186,1.46,1111122 
DISL,ioos:station:DISL:MHPA:1,2014-08-05T08:00:00Z,30.6671,-87.9365,1.204,1.55,1111122 
DISL,ioos:station:DISL:MHPA:1,2014-08-05T08:30:00Z,30.6671,-87.9365,1.246,1.48,1111122 
DISL,ioos:station:DISL:MHPA:1,2014-08-05T09:00:00Z,30.6671,-87.9365,1.268,1.51,1111122 
DISL,ioos:station:DISL:MHPA:1,2014-08-05T09:30:00Z,30.6671,-87.9365,1.281,1.53,1111122 
DISL,ioos:station:DISL:MHPA:1,2014-08-05T10:00:00Z,30.6671,-87.9365,1.284,1.56,1111122 
DISL,ioos:station:DISL:MHPA:1,2014-08-05T10:30:00Z,30.6671,-87.9365,1.311,1.59,1111122 
DISL,ioos:station:DISL:MHPA:1,2014-08-05T11:00:00Z,30.6671,-87.9365,1.333,1.6,1111122 
DISL,ioos:station:DISL:MHPA:1,2014-08-05T11:30:00Z,30.6671,-87.9365,1.329,1.58,1111122 
DISL,ioos:station:DISL:MHPA:1,2014-08-05T12:00:00Z,30.6671,-87.9365,1.334,1.58,1111122 
DISL,ioos:station:DISL:MHPA:1,2014-08-05T12:30:00Z,30.6671,-87.9365,1.339,1.53,1111122 
DISL,ioos:station:DISL:MHPA:1,2014-08-05T13:00:00Z,30.6671,-87.9365,1.328,1.5,1111122 
DISL,ioos:station:DISL:MHPA:1,2014-08-05T13:30:00Z,30.6671,-87.9365,1.305,1.54,1111122 
DISL,ioos:station:DISL:MHPA:1,2014-08-05T14:00:00Z,30.6671,-87.9365,1.311,1.78,1111122 
DISL,ioos:station:DISL:MHPA:1,2014-08-05T14:30:00Z,30.6671,-87.9365,1.278,1.8,1111122 
DISL,ioos:station:DISL:MHPA:1,2014-08-05T15:00:00Z,30.6671,-87.9365,1.232,1.8,1111122 
DISL,ioos:station:DISL:MHPA:1,2014-08-05T15:30:00Z,30.6671,-87.9365,1.2,1.76,1111122 
DISL,ioos:station:DISL:MHPA:1,2014-08-05T16:00:00Z,30.6671,-87.9365,1.174,1.75,1111122 
DISL,ioos:station:DISL:MHPA:1,2014-08-05T16:30:00Z,30.6671,-87.9365,1.139,1.73,1111122 
DISL,ioos:station:DISL:MHPA:1,2014-08-05T17:00:00Z,30.6671,-87.9365,1.097,1.76,1111122 
DISL,ioos:station:DISL:MHPA:1,2014-08-05T17:30:00Z,30.6671,-87.9365,1.072,1.81,1111122 
DISL,ioos:station:DISL:MHPA:1,2014-08-05T18:00:00Z,30.6671,-87.9365,1.04,1.76,1111122 
DISL,ioos:station:DISL:MHPA:1,2014-08-05T18:30:00Z,30.6671,-87.9365,1.016,1.74,1111122 
DISL,ioos:station:DISL:MHPA:1,2014-08-05T19:00:00Z,30.6671,-87.9365,0.997,1.62,1111122 
DISL,ioos:station:DISL:MHPA:1,2014-08-05T19:30:00Z,30.6671,-87.9365,0.978,1.44,1111122 
DISL,ioos:station:DISL:MHPA:1,2014-08-05T20:00:00Z,30.6671,-87.9365,0.951,1.48,1111122 
DISL,ioos:station:DISL:MHPA:1,2014-08-05T20:30:00Z,30.6671,-87.9365,0.933,1.42,1111122 
DISL,ioos:station:DISL:MHPA:1,2014-08-05T21:00:00Z,30.6671,-87.9365,0.911,1.45,1111122 
DISL,ioos:station:DISL:MHPA:1,2014-08-05T21:30:00Z,30.6671,-87.9365,0.89,1.43,1111122 
DISL,ioos:station:DISL:MHPA:1,2014-08-05T22:00:00Z,30.6671,-87.9365,0.876,1.41,1111122 
DISL,ioos:station:DISL:MHPA:1,2014-08-05T22:30:00Z,30.6671,-87.9365,0.867,1.41,1111122 
DISL,ioos:station:DISL:MHPA:1,2014-08-05T23:00:00Z,30.6671,-87.9365,0.861,1.37,1111122 
DISL,ioos:station:DISL:MHPA:1,2014-08-05T23:30:00Z,30.6671,-87.9365,0.86,1.39,1111122 
DISL,ioos:station:DISL:MHPA:1,2014-08-06T00:00:00Z,30.6671,-87.9365,0.86,1.38,1111122 
DISL,ioos:station:DISL:MHPA:1,2014-08-06T00:30:00Z,30.6671,-87.9365,0.859,1.4,1111122 
DISL,ioos:station:DISL:MHPA:1,2014-08-06T01:00:00Z,30.6671,-87.9365,0.851,1.44,1111122 
DISL,ioos:station:DISL:MHPA:1,2014-08-06T01:30:00Z,30.6671,-87.9365,0.853,1.43,1111122 
DISL,ioos:station:DISL:MHPA:1,2014-08-06T02:00:00Z,30.6671,-87.9365,0.872,1.44,1111122 
DISL,ioos:station:DISL:MHPA:1,2014-08-06T02:30:00Z,30.6671,-87.9365,0.896,1.51,1111122 
DISL,ioos:station:DISL:MHPA:1,2014-08-06T03:00:00Z,30.6671,-87.9365,0.917,1.54,1111122 
DISL,ioos:station:DISL:MHPA:1,2014-08-06T03:30:00Z,30.6671,-87.9365,0.939,1.66,1111122 
DISL,ioos:station:DISL:MHPA:1,2014-08-06T04:00:00Z,30.6671,-87.9365,0.971,1.72,1111122 
DISL,ioos:station:DISL:MHPA:1,2014-08-06T04:30:00Z,30.6671,-87.9365,1.009,1.71,1111122 
DISL,ioos:station:DISL:MHPA:1,2014-08-06T05:00:00Z,30.6671,-87.9365,1.05,1.72,1111122 
DISL,ioos:station:DISL:MHPA:1,2014-08-06T05:30:00Z,30.6671,-87.9365,1.079,1.77,1111122 
DISL,ioos:station:DISL:MHPA:1,2014-08-06T06:00:00Z,30.6671,-87.9365,1.094,1.76,1111122 
DISL,ioos:station:DISL:MHPA:1,2014-08-06T06:30:00Z,30.6671,-87.9365,1.112,1.77,1111122 
DISL,ioos:station:DISL:MHPA:1,2014-08-06T07:00:00Z,30.6671,-87.9365,1.136,1.72,1111122 
DISL,ioos:station:DISL:MHPA:1,2014-08-06T07:30:00Z,30.6671,-87.9365,1.152,1.76,1111122 
DISL,ioos:station:DISL:MHPA:1,2014-08-06T08:00:00Z,30.6671,-87.9365,1.169,1.81,1111122 
DISL,ioos:station:DISL:MHPA:1,2014-08-06T08:30:00Z,30.6671,-87.9365,1.205,1.92,1111122 
DISL,ioos:station:DISL:MHPA:1,2014-08-06T09:00:00Z,30.6671,-87.9365,1.231,2.0,1111122 
DISL,ioos:station:DISL:MHPA:1,2014-08-06T09:30:00Z,30.6671,-87.9365,1.252,1.99,1111122 
DISL,ioos:station:DISL:MHPA:1,2014-08-06T10:00:00Z,30.6671,-87.9365,1.275,1.88,1111122 
DISL,ioos:station:DISL:MHPA:1,2014-08-06T10:30:00Z,30.6671,-87.9365,1.301,1.76,1111122 
DISL,ioos:station:DISL:MHPA:1,2014-08-06T11:00:00Z,30.6671,-87.9365,1.327,1.71,1111122 
DISL,ioos:station:DISL:MHPA:1,2014-08-06T11:30:00Z,30.6671,-87.9365,1.336,1.7,1111122 
DISL,ioos:station:DISL:MHPA:1,2014-08-06T12:00:00Z,30.6671,-87.9365,1.35,1.71,1111122 
DISL,ioos:station:DISL:MHPA:1,2014-08-06T12:30:00Z,30.6671,-87.9365,1.354,1.74,1111122 
DISL,ioos:station:DISL:MHPA:1,2014-08-06T13:00:00Z,30.6671,-87.9365,1.349,1.77,1111122 
DISL,ioos:station:DISL:MHPA:1,2014-08-06T13:30:00Z,30.6671,-87.9365,1.333,1.74,1111122 
DISL,ioos:station:DISL:MHPA:1,2014-08-06T14:00:00Z,30.6671,-87.9365,1.318,1.75,1111122 
DISL,ioos:station:DISL:MHPA:1,2014-08-06T14:30:00Z,30.6671,-87.9365,1.303,1.73,1111122 
DISL,ioos:station:DISL:MHPA:1,2014-08-06T15:00:00Z,30.6671,-87.9365,1.279,1.86,1111122 
DISL,ioos:station:DISL:MHPA:1,2014-08-06T15:30:00Z,30.6671,-87.9365,1.258,1.77,1111122 